Location: Casalecchio di Reno
(44.4760°N, 11.2757°E)
Time: 01:33:29
(UTC+02:00)

UWE-3 - Pass Details

Date: 19 June 2024
Orbit: 566 x 652 km, 97.8° (Epoch: 17 July)

Event Time Altitude Azimuth Distance (km) Brightness Sun altitude
Rises 04:06:32 0° 9° (N) 2,908 ? -11.8°
Reaches altitude 10° 04:08:46 10° 6° (N) 1,982 ? -11.5°
Maximum altitude 04:13:01 61° 287° (WNW) 685 ? -11.0°
Enters shadow 04:16:29 14° 208° (SSW) 1,662 ? -10.6°
